TRA65J EHRD-LPMA

Flight info

Callsign TRA65J
Flight time N/A
Altitude 36000
Route SOMEL2A ABNED L980 LOGAN DCT SAM/N0440F350 M195 LORKU DCT EBOMO/N0448F370 DCT COQUE DCT KORUL DCT DEMOS DCT IBIDO DCT MARUM DCT RAKUN RAKUN1P
Aircraft B738/M-SDE2E3FGHIRWXY/LB1

Departure

Time 2026-05-04 14:37
Airport Rotterdam The Hague Airport (EHRD)

Arrival

Time N/A
Airport Cristiano Ronaldo International Airport (LPMA)
Time Latitude Longitude Altitude Speed Heading
2026-05-04 14:24 51.95187 4.43407 1 ft 0 kts 327°
2026-05-04 14:33 51.95189 4.43405 1 ft 1 kts 327°
2026-05-04 14:33 51.95210 4.43381 1 ft 6 kts 321°
2026-05-04 14:34 51.95216 4.43335 0 ft 4 kts 240°
2026-05-04 14:34 51.95191 4.43271 0 ft 9 kts 236°
2026-05-04 14:34 51.95151 4.43165 0 ft 13 kts 245°
2026-05-04 14:34 51.95112 4.43034 0 ft 9 kts 247°
2026-05-04 14:35 51.95109 4.43020 0 ft 0 kts 252°
2026-05-04 14:35 51.95106 4.43006 0 ft 5 kts 255°
2026-05-04 14:36 51.95138 4.42921 0 ft 13 kts 326°
2026-05-04 14:36 51.95223 4.42856 1 ft 12 kts 20°
2026-05-04 14:36 51.95249 4.42910 1 ft 19 kts 57°
2026-05-04 14:36 51.95465 4.43461 -1 ft 95 kts 57°
2026-05-04 14:37 51.95948 4.44660 1 ft 157 kts 58°
2026-05-04 14:37 51.96560 4.46276 479 ft 176 kts 54°
2026-05-04 14:37 51.97187 4.47984 1335 ft 180 kts 55°
2026-05-04 14:37 51.97884 4.49819 1902 ft 200 kts 57°
2026-05-04 14:38 51.98805 4.51539 2531 ft 207 kts 31°
2026-05-04 14:38 52.00168 4.52200 3102 ft 214 kts
2026-05-04 14:38 52.01666 4.51678 3466 ft 227 kts 332°
2026-05-04 14:38 52.02895 4.50049 4045 ft 232 kts 304°
2026-05-04 14:39 52.03517 4.47651 4850 ft 233 kts 276°
2026-05-04 14:39 52.03343 4.45069 5689 ft 231 kts 246°
2026-05-04 14:39 52.02416 4.43005 6468 ft 233 kts 219°
2026-05-04 14:40 51.99695 4.39953 7927 ft 240 kts 215°
2026-05-04 14:40 51.98319 4.38385 8748 ft 244 kts 216°
2026-05-04 14:40 51.96957 4.36696 9516 ft 249 kts 227°
2026-05-04 14:40 51.96167 4.34194 10144 ft 261 kts 258°
2026-05-04 14:41 51.95896 4.31154 10398 ft 286 kts 262°
2026-05-04 14:41 51.95634 4.27820 10605 ft 310 kts 262°
2026-05-04 14:41 51.95044 4.20417 11326 ft 343 kts 262°
2026-05-04 14:42 51.94394 4.12673 12872 ft 348 kts 262°
2026-05-04 14:42 51.94061 4.08799 13566 ft 353 kts 262°
2026-05-04 14:42 51.93694 4.04803 14296 ft 355 kts 261°
2026-05-04 14:43 51.93308 4.00811 14902 ft 360 kts 261°
2026-05-04 14:43 51.92917 3.96836 15493 ft 365 kts 261°
2026-05-04 14:43 51.92518 3.92787 16291 ft 364 kts 261°
2026-05-04 14:43 51.92117 3.88723 17037 ft 365 kts 261°
2026-05-04 14:44 51.91715 3.84638 17636 ft 370 kts 261°
2026-05-04 14:44 51.91305 3.80485 18209 ft 375 kts 260°
2026-05-04 14:44 51.90889 3.76273 18655 ft 382 kts 260°
2026-05-04 14:44 51.90469 3.72029 19283 ft 382 kts 260°
2026-05-04 14:45 51.90046 3.67778 19912 ft 383 kts 260°
2026-05-04 14:45 51.89620 3.63501 20427 ft 387 kts 260°
2026-05-04 14:45 51.89188 3.59184 20947 ft 390 kts 260°
2026-05-04 14:45 51.88751 3.54837 21510 ft 392 kts 260°
2026-05-04 14:46 51.88311 3.50476 22071 ft 393 kts 260°
2026-05-04 14:46 51.87867 3.46096 22600 ft 396 kts 260°
2026-05-04 14:46 51.87419 3.41689 23118 ft 398 kts 260°
2026-05-04 14:46 51.86968 3.37267 23703 ft 398 kts 260°